www.pogodaiklimat.ru

Погода и климат >> Архив погоды >> КНДР >> Чунган


ПОГОДА в Чунгане

  • Прогноз погоды в Чунгане
  • Монитор погоды в Чунгане

АРХИВ ПОГОДЫ в Чунгане

Время (UTC), дата Ветер
(напр.,м/с)
 
Видим.   Явления Облачность Т
(С)
Тd
(С)
f
(%)
Тe
(С)
Тes
(С)
Комфортность P
(гПа)
Po
(гПа)
Тmin
(С)
Tmax
(С)
R
(мм)
R24
(мм)
S
(см)
12 12.06 Ю 3 15 км 4/4 600 м
[Sc]
+22.5 +17.5 73 +27 +27 душно 1008.1 971.0 +28.2
15 12.06 штиль 0 15 км ясно +18.1 +15.4 84 +18 +18 1009.6 971.9
18 12.06 штиль 0 15 км 6/6 600 м
[Sc]
+15.9 +14.1 89 +16 +16 1010.5 972.6
21 12.06 штиль 0 3500 м дымка 10/10 600 м
[St]
+15.5 +13.9 90 +15 +15 1010.7 972.6
00 13.06 штиль 0 15 км 10/10 600 м
[Sc]
+18.9 +16.8 88 +20 +20 1009.9 972.3 +15.2
03 13.06 ЮЗ 3 15 км 9/9 600 м
[Sc]
+24.7 +16.4 60 +28 +30 душно 1008.4 971.5
06 13.06 ЮЗ 5 15 км 9/9 600 м
[Sc]
+24.9 +14.1 51 +27 +28 жарко 1006.8 969.9
09 13.06 штиль 0 15 км 10/10 600 м
[Sc]
+20.5 +16.2 76 +23 +23 комфорт 1008.3 970.9
12 13.06 штиль 0 10 км слаб. дождь 10/0 600 м
[As op]
+18.5 +15.8 84 +19 +19 1008.5 970.9 +26.6 1
15 13.06 штиль 0 10 км слаб. дождь 10/0 600 м
[As op]
+17.3 +15.4 89 +17 +17 1008.9 971.1 2
18 13.06 штиль 0 10 км слаб. дождь 10/0 600 м
[As op]
+16.9 +15.5 91 +17 +17 1008.0 970.2 6
21 13.06 штиль 0 15 км в посл. час дождь 10/10 600 м
[Sc]
+15.9 +14.5 91 +16 +16 1008.4 970.5 1
00 14.06 штиль 0 15 км 10/10 600 м
[Sc]
+16.9 +15.1 89 +17 +17 1008.9 971.1 +15.2 7
03 14.06 штиль 0 15 км 10/10 600 м
[Sc]
+19.9 +15.9 78 +22 +22 комфорт 1007.7 970.2
06 14.06 ЮЗ 3 15 км 9/9 600 м
[Sc]
+23.3 +16.1 64 +28 +29 душно 1005.6 968.5
09 14.06 ЮЗ 3 15 км 10/10 600 м
[Sc]
+22.5 +15.0 63 +26 +26 жарко 1003.4 966.5
12 14.06 штиль 0 15 км 10/10 600 м
[Sc]
+16.5 +14.4 87 +16 +16 1005.7 967.9 +25.1 6
18 14.06 штиль 0 15 км 10/10 600 м
[Sc]
+14.7 +13.4 92 +14 +14 1006.8 968.8 4
00 15.06 штиль 0 15 км 10/10 600 м
[Sc]
+16.1 +14.2 88 +16 +16 1005.6 967.7 +13.8
06 15.06 штиль 0 10 км слаб. дождь 10/0 600 м
[As op]
+18.1 +12.5 70 +18 +22 1004.3 966.8 1
12 15.06 штиль 0 15 км 10/10 600 м
[Sc]
+16.5 +13.1 80 +16 +16 1005.1 967.5 +21.0 13
18 15.06 ЮЗ 3 15 км 10/10 600 м
[Sc]
+13.7 +10.6 82 +13 +13 1008.0 970.2
00 16.06 СВ 3 15 км 10/10 600 м
[Sc]
+14.2 +10.6 79 +13 +13 1010.5 972.4 +12.8
06 16.06 штиль 0 15 км 10/10 600 м
[Sc]
+18.5 +11.4 63 +19 +19 1010.1 972.5
12 16.06 штиль 0 15 км 10/10 600 м
[Sc]
+17.1 +11.8 71 +17 +17 1009.7 971.9 +21.0
18 16.06 штиль 0 15 км ясно +11.7 +9.8 88 +11 +11 1012.8 974.3
00 17.06 штиль 0 15 км 10/10 600 м
[Sc]
+14.1 +12.1 88 +14 +14 1013.4 975.0 +10.6
06 17.06 ЮЗ 3 15 км 10/5 600 м
[Sc Ac lent Ci fib]
+24.5 +13.8 51 +27 +30 жарко 1009.6 972.7
09 17.06 ЮЗ 2 15 км 9/6 600 м
[Sc Ci fib]
+25.3 +12.7 46 +27 +28 жарко 1008.7 971.2
12 17.06 ЮЗ 2 15 км 8/8 600 м
[Sc]
+19.9 +10.3 54 +22 +22 комфорт 1009.2 971.7 +26.1
15 17.06 штиль 0 15 км 8/0 1500 м
[Ac lent]
+14.9 +10.7 76 +15 +15 1011.4 973.2
18 17.06 штиль 0 15 км 10/10 600 м
[Sc]
+12.9 +11.0 88 +12 +12 1012.4 973.8
21 17.06 штиль 0 15 км 9/9 600 м
[Sc]
+13.1 +11.7 91 +13 +13 1012.4 973.8
00 18.06 ЮЗ 3 15 км 8/8 600 м
[Sc]
+16.9 +13.9 82 +17 +18 1011.5 973.5 +12.5
03 18.06 ЮЗ 3 15 км 8/0 1500 м
[Ac lent]
+22.5 +15.1 63 +26 +32 жарко 1009.7 972.5
06 18.06 ЮЗ 4 15 км 8/8 600 м
[Sc]
+25.7 +16.9 58 +29 +31 душно 1006.7 970.0
09 18.06 штиль 0 15 км 10/10 600 м
[Sc]
+24.1 +15.7 59 +27 +27 жарко 1006.1 969.1
12 18.06 штиль 0 15 км 10/10 600 м
[Sc]
+20.4 +16.3 77 +23 +23 комфорт 1007.4 969.9 +27.1
15 18.06 штиль 0 15 км 4/0
[Ci fib]
+16.3 +14.4 89 +16 +16 1009.4 971.5
18 18.06 штиль 0 15 км 9/0
[Ci fib]
+14.9 +13.6 92 +15 +15 1009.8 971.8
21 18.06 штиль 0 15 км 10/10 600 м
[Sc]
+14.7 +13.6 93 +14 +14 1010.2 972.2
00 19.06 штиль 0 15 км 10/10 600 м
[Sc]
+16.9 +15.1 89 +17 +17 1011.8 974.0 +14.2
03 19.06 штиль 0 15 км 5/5 600 м
[Sc]
+21.5 +18.7 84 +26 +39 душно 1009.2 971.8
06 19.06 ЮЗ 3 15 км 3/3 600 м
[Sc]
+27.5 +17.2 53 +31 +40 душно 1007.0 970.5
09 19.06 ЮЗ 4 15 км 3/3 600 м
[Sc]
+27.9 +14.9 45 +30 +32 жарко 1002.8 966.5

 

Местоположение метеостанции Чунган (КНДР): широта 41.78 долгота 126.88 высота над уровнем моря 331 м.

В архиве по умолчанию представлена погода в Чунгане за последнюю неделю. Архивные данные за месяц целиком и за предыдущие месяцы, начиная с января 2011 года, Вы можете получить, выбрав интересующий диапазон дат из раскрывающегося списка и нажав кнопку "Ввод!".


*Определитесь, кто Вы:
робот инопланетянин человек

Внимание! Время в таблицах - всемирное. Для получения местного времени необходимо прибавить поправку, которая равна 9 ч.

Смотрите также архив погоды в соседних городах и на ближайших метеорологических станциях:

Погода в Линьцзяне (Гирин, Китай) (7 км)
Погода в Канге (КНДР) (93 км)
Погода в Цзиане (Цзяньси, Китай) (97 км)
Погода в Хесене (КНДР) (115 км)
Погода в Чанбае (Гирин, Китай) (117 км)
Погода в Самджиёне (КНДР) (118 км)
Погода в Хуадяне (Гирин, Китай) (134 км)
Погода в Пунгсане (КНДР) (151 км)
Погода в Джангджине (КНДР) (160 км)
Погода в Цинъюане (Гуандун, Китай) (164 км)

Пояснения к столбцам:

Ветер - указаны скорость ветра в м/с - средняя за 10 мин, порывы в срок и между сроками (в фигурных скобках) и направление, откуда дует ветер: С - северный, СВ - северо-восточный, В - восточный, ЮВ - юго-восточный, Ю - южный, ЮЗ - юго-западный, З - западный, СЗ - северо-западный.
Видимость - горизонтальная дальность видимости в метрах или километрах. При видимости от 1 до 10 км при отсутствии осадков обычно наблюдается дымка, при ухудшении видимости до 1 км и менее - туман. В сухую погоду видимость может ухудшаться дымом, пылью или мглою.
Явления - указаны атмосферные явления, наблюдавшиеся в срок или в последний час перед сроком; фигурными скобками обозначены явления, наблюдавшиеся между сроками (за 1-3 часа до срока); квадратными скобками обозначены град или гололедные отложения с указанием их диаметра в мм.
Облачность - указаны через наклонную черту общая и нижняя облачность в баллах и высота нижней границы облаков в метрах; квадратными скобками обозначены формы облаков: Ci - перистые, Cs - перисто-слоистые, Cc - перисто-кучевые, Ac - высококучевые, As - высокослоистые, Sc - слоисто-кучевые, Ns - слоисто-дождевые, Cu - кучевые, Cb - кучево-дождевые. Подробнее классификацию облаков см. в Атласе облаков (PDF).
T - Температура воздуха - температура, измеренная на высоте 2 м над землей.
Td - Температура точки росы - температура, при понижении до которой содержащийся в воздухе водяной пар достигнет насыщения.
f - Относительная влажность воздуха - влажноcть воздуха, измеренная на высоте 2 м над землей.
Te - Эффективная температура - температура, которую ощущает одетый по сезону человек в тени. Характеристика душности погоды. При расчете учитывается влияние влажности воздуха и скорости ветра на теплоощущения человека.
Tes - Эффективная температура на солнце - температура, которую ощущает человек, с поправкой на солнечный нагрев. Характеристика знойности погоды. Зависит от высоты солнца над горизонтом, облачности и скорости ветра. Ночью, в пасмурную погоду, а также при ветре 12 м/с и более поправка равна нулю.
P - Атмосферное давление - приведенное к уровню моря атмосферное давление.
Po - Атмосферное давление - измеренное на уровне метеостанции атмосферное давление.
Tmin - Минимальная температура - минимум температуры воздуха на высоте 2 м над землей.
Tmax - Максимальная температура - максимум температуры воздуха на высоте 2 м над землей.
R - Количество осадков - Количество выпавших осадков за период времени, мм. При наведении курсора мыши на число - период времени, за который выпало указанное количество осадков.
R24 - Количество осадков - Количество выпавших осадков за 24 часа, мм.
S - Снежный покров - Высота снежного покрова, см. При наведении курсора мыши на число - состояние снежного покрова и степень покрытия местности в баллах.